User: anonymous   Login
Location: Columbia
(38.9520°N, 92.3340°W)
Time: 07:26:08
(UTC-06:00)
Language:

SJ-11-01 - Orbit

View from above orbital plane
View from above orbital plane
View from above satellite
View from above satellite

Ground track
Ground track

The orbit data is extracted from the following two-line orbital elements,

1 36088U 09061A   17053.18306961  .00000051  00000-0  20262-4 0  9993
2 36088  98.1534 103.0076 0010203 267.2099  92.7939 14.59916729387869
Epoch (UTC): 22 February 2017 04:23:37
Eccentricity: 0.0010203
inclination: 98.1534°
perigee height: 686 km
apogee height: 700 km
right ascension of ascending node: 103.0076°
argument of perigee: 267.2099°
revolutions per day: 14.59916729
mean anomaly at epoch: 92.7939°
orbit number at epoch: 38786

The dashed part of the orbit path shows where the satellite is in the earth's shadow,  

DLR